This is the latest recevied weather packets stored in our database for station/object AA0PB. If no packets are shown the sender has not sent any weather packets the latest 10 day(s).
| Time | Temp. | Humidity | Pressure | Rain* | Wind** | Luminosity | Snow |
|---|---|---|---|---|---|---|---|
| 1777950265 | 20.56° C | 67% | 1011.4 hPa | 0 mm | - | 12 W/m² | - |
| 1777949960 | 21.11° C | 67% | 1011.3 hPa | 0 mm | - | 15 W/m² | - |
| 1777949658 | 21.67° C | 66% | 1011.1 hPa | 0 mm | - | 18 W/m² | - |
| 1777949357 | 21.67° C | 65% | 1011.3 hPa | 0 mm | - | 21 W/m² | - |
| 1777949054 | 22.22° C | 64% | 1011.2 hPa | 0 mm | - | 23 W/m² | - |
| 1777948751 | 22.78° C | 63% | 1011 hPa | 0 mm | - | 25 W/m² | - |
| 1777948448 | 22.78° C | 63% | 1011.1 hPa | 0 mm | - | 42 W/m² | - |
| 1777948145 | 22.78° C | 61% | 1011.1 hPa | 0 mm | - | 47 W/m² | - |
| 1777947842 | 22.78° C | 61% | 1010.9 hPa | 0 mm | - | 53 W/m² | - |
| 1777947539 | 22.78° C | 61% | 1011.1 hPa | 0 mm | - | 45 W/m² | - |
| 1777947235 | 22.78° C | 60% | 1011.1 hPa | 0 mm | - | 54 W/m² | - |
| 1777946931 | 23.89° C | 58% | 1011.1 hPa | 0 mm | - | 43 W/m² | - |
| 1777946627 | 23.89° C | 58% | 1011.1 hPa | 0 mm | - | 86 W/m² | - |
| 1777946324 | 23.89° C | 58% | 1011.1 hPa | 0 mm | - | 103 W/m² | - |
| 1777946021 | 23.89° C | 59% | 1010.9 hPa | 0 mm | - | 113 W/m² | - |
| 1777945719 | 23.33° C | 60% | 1011.2 hPa | 0 mm | - | 121 W/m² | - |
| 1777945415 | 23.89° C | 59% | 1011.1 hPa | 0 mm | - | 137 W/m² | - |
| 1777945112 | 25° C | 58% | 1011.1 hPa | 0 mm | - | 146 W/m² | - |
| 1777944809 | 24.44° C | 59% | 1011 hPa | 0 mm | - | 157 W/m² | - |
| 1777944508 | 24.44° C | 58% | 1011 hPa | 0 mm | - | 168 W/m² | - |
| 1777944205 | 24.44° C | 58% | 1011.1 hPa | 0 mm | - | 179 W/m² | - |
| 1777943900 | 24.44° C | 60% | 1011 hPa | 0 mm | - | 191 W/m² | - |
| 1777943598 | 24.44° C | 59% | 1011.3 hPa | 0 mm | - | 206 W/m² | - |
| 1777943294 | 24.44° C | 59% | 1011.2 hPa | 0 mm | - | 216 W/m² | - |
| 1777942990 | 24.44° C | 59% | 1011.2 hPa | 0 mm | - | 231 W/m² | - |
* Rain latest hour (hover to see other rain measurements)
** Current wind speed in m/s (hover to see current wind gust speed)